Miscellaneous Local Product
Issued by NWS Hastings, NE

Current Version |  Previous Version |  Text Only |  Print | Product List |  Glossary On
Versions: 1 2 3 4 5 6 7 8 9 10 11 12 13 14 15 16 17 18 19 20 21 22 23 24 25 26 27 28 29 30 31 32 33 34 35 36 37 38 39 40 41 42 43 44 45 46 47 48 49 50
731
AXUS43 KGID 241003
MISGRI

GID CWA HOURLY WEATHER ROUNDUP
NATIONAL WEATHER SERVICE HASTINGS NE
500 AM CDT FRI MAY 24 2024

NOTE: "FAIR" INDICATES FEW OR NO CLOUDS BELOW 12,000 FEET WITH NO
SIGNIFICANT WEATHER AND/OR OBSTRUCTIONS TO VISIBILITY.

...SOUTH CENTRAL NEBRASKA...

CITY           SKY/WX    TMP DP  RH WIND       PRES   REMARKS
GRAND ISLAND   CLOUDY    54  50  86 NW6       29.66R
KEARNEY        PTCLDY    52  47  83 W10       29.71R
HASTINGS       MOCLDY    53  49  86 NW5       29.67R
ORD            CLOUDY    51  47  86 W10       29.67R
YORK           CLOUDY    52  48  87 N10       29.62F
AURORA         CLOUDY    54  50  87 N6        29.63R
LEXINGTON      CLEAR     52  41  66 NW14      29.75R
HOLDREGE       CLEAR     52  46  81 NW7       29.72R
HEBRON         CLOUDY    58  51  79 N12G22    29.65R

...NEBRASKA PANHANDLE...

CITY           SKY/WX    TMP DP  RH WIND       PRES   REMARKS
CHADRON        PTCLDY    47  37  68 MISG      29.83R
ALLIANCE       CLEAR     45  32  60 NW21G35   29.82R
SCOTTSBLUFF    CLEAR     46  30  53 NW20G31   29.87R
SIDNEY         NOT AVBL

...WESTERN AND NORTH CENTRAL NEBRASKA...

CITY           SKY/WX    TMP DP  RH WIND       PRES   REMARKS
VALENTINE      NOT AVBL
AINSWORTH      PTCLDY    47  37  67 W21G26    29.69R
ONEILL         CLOUDY    53  44  74 W13G18    29.66R
BROKEN BOW     PTCLDY    51  39  63 W13       29.73R
IMPERIAL       CLEAR     50  31  48 NW20G33   29.83R
NORTH PLATTE   CLEAR     48  36  63 NW14      29.79R
MCCOOK         CLEAR     52  36  54 NW17      29.82R

...EASTERN NEBRASKA...

CITY           SKY/WX    TMP DP  RH WIND       PRES   REMARKS
NORFOLK        CLOUDY    53  51  93 SE3       29.61F
SO SIOUX CITY  LGT RAIN  60  59  96 SW7       29.55R
TEKAMAH        CLOUDY    61  59  93 E7        29.54F
ALBION         CLOUDY    52  51  96 W5        29.65R
OMAHA EPPLEY   TSTM      61  57  87 NE12      29.55F
OFFUTT AFB     TSTM      61  58  89 NE14      29.50F
MILLARD        CLOUDY    60  58  92 NE6       29.50F
LINCOLN        CLOUDY    61  58  90 W6        29.60R
NEBRASKA CITY  CLOUDY    60  57  92 E10       29.59F
BEATRICE       CLOUDY    59  58  94 CALM      29.62R
FALLS CITY     LGT RAIN  61  60  97 N7        29.62F

...NORTHERN KANSAS...

CITY           SKY/WX    TMP DP  RH WIND       PRES   REMARKS
GOODLAND       CLEAR     50  27  40 N20G29    29.85R
HILL CITY      CLEAR     52  46  80 NW8       29.76R
NORTON         CLEAR     50  43  76 NW17G24   29.79R
PHILLIPSBURG   CLEAR     54  44  69 W9        29.72R
OBERLIN        SUNNY     51  36  57 NW24      29.85R
SMITH CENTER   CLEAR     53  49  86 N9        29.69R
HAYS           CLEAR     55  45  68 NW10      29.73R
RUSSELL        CLEAR     57  47  69 NW16      29.69R
CONCORDIA      MOCLDY    62  57  83 NW14G24   29.64R
SALINA         MOCLDY    69  61  75 W16G25    29.60R
TOPEKA         CLOUDY    76  69  79 SW8       29.62R